FW4540 Weather Reports


Display with metric or nautical units.
time (UTC)temp
F
wind
direction
speed
MPH
gust
MPH
rain 1hr
in
rain 24hr
in
rain mn
in
humidity
%
barometer
mb
20260507233012 49 0 0.0 0.0 0.00 0.00 0.00 94 14.5
20260507232012 49 0 0.0 0.0 0.00 0.00 0.00 94 14.5
20260507230013 49 0 0.0 0.0 0.00 0.00 0.00 93 14.5
20260507225012 50 0 0.0 0.0 0.00 0.00 0.00 93 14.5
20260507224012 50 0 0.0 0.0 0.00 0.00 0.00 93 14.5
20260507223012 50 0 0.0 0.0 0.00 0.00 0.00 92 14.5
20260507222012 50 0 0.0 0.0 0.00 0.00 0.00 92 14.5
20260507221012 51 0 0.0 0.0 0.00 0.00 0.00 90 14.5
20260507220012 51 0 0.0 0.0 0.00 0.01 0.01 89 14.5
20260507215012 52 0 0.0 0.0 0.00 0.01 0.01 88 14.5
20260507213012 52 360 0.0 3.0 0.00 0.01 0.01 87 14.3
20260507212012 53 360 0.0 1.0 0.00 0.01 0.01 86 14.3
20260507211012 53 22 0.0 2.0 0.00 0.01 0.01 86 14.2
20260507210012 53 0 0.0 0.0 0.00 0.01 0.01 85 14.3
20260507205012 53 0 0.0 0.0 0.00 0.01 0.01 85 14.3
20260507204011 53 0 0.0 0.0 0.00 0.01 0.01 84 14.3
20260507203012 53 0 0.0 0.0 0.00 0.01 0.01 83 14.3
20260507202012 54 0 0.0 0.0 0.00 0.01 0.01 83 14.2
20260507201012 54 0 0.0 0.0 0.00 0.01 0.01 81 14.1
20260507200012 54 0 0.0 0.0 0.00 0.01 0.01 81 14.0
20260507195012 55 0 0.0 0.0 0.00 0.01 0.01 80 13.9
20260507194011 55 0 0.0 0.0 0.00 0.01 0.01 79 13.8
20260507191012 57 22 0.0 2.0 0.00 0.01 0.01 75 13.6
20260507190012 58 0 0.0 0.0 0.00 0.01 0.01 74 13.6
20260507184011 59 22 0.0 3.0 0.00 0.01 0.01 73 13.5
20260507183011 59 0 0.0 0.0 0.00 0.01 0.01 72 13.4
20260507182012 60 360 1.0 3.0 0.00 0.01 0.01 72 13.3
20260507181011 60 22 0.0 2.0 0.00 0.01 0.01 71 13.4
20260507180012 61 360 0.0 4.0 0.00 0.01 0.01 69 13.3
20260507175011 62 45 2.0 6.0 0.00 0.01 0.01 65 13.2
20260507174012 62 45 2.0 5.0 0.00 0.01 0.01 65 13.2
20260507172011 63 45 2.0 6.0 0.00 0.01 0.01 65 13.2
20260507170012 64 45 2.0 5.0 0.00 0.01 0.01 62 13.2
20260507165012 64 22 2.0 5.0 0.00 0.01 0.01 62 13.4
20260507163011 64 360 1.0 4.0 0.00 0.01 0.01 61 13.5
20260507162011 64 45 3.0 6.0 0.00 0.01 0.01 60 13.5
20260507154011 64 45 1.0 3.0 0.00 0.01 0.01 59 13.6
20260507153011 64 22 0.0 2.0 0.00 0.01 0.01 59 13.7
20260507152012 64 67 2.0 4.0 0.00 0.01 0.01 58 13.7
20260507151011 65 270 1.0 2.0 0.00 0.01 0.01 63 13.7
20260507150012 66 270 1.0 3.0 0.00 0.01 0.01 64 13.7
20260507145011 65 315 0.0 2.0 0.00 0.01 0.01 61 13.8
20260507144011 63 22 1.0 2.0 0.00 0.01 0.01 56 14.0
20260507143011 63 90 2.0 4.0 0.00 0.01 0.01 61 14.1
20260507142011 64 360 1.0 8.0 0.00 0.01 0.01 57 14.2
20260507141012 65 90 3.0 7.0 0.00 0.01 0.01 63 14.2
20260507140011 64 67 1.0 5.0 0.00 0.01 0.01 64 14.3
20260507135011 65 315 1.0 4.0 0.00 0.01 0.01 58 14.4
20260507134011 64 67 4.0 7.0 0.00 0.01 0.01 68 14.5
20260507133011 64 67 2.0 5.0 0.00 0.01 0.01 64 14.6
20260507132012 63 45 1.0 7.0 0.00 0.01 0.01 68 14.6
20260507131011 64 45 1.0 4.0 0.00 0.01 0.01 59 14.7
20260507125011 63 45 1.0 4.0 0.00 0.01 0.01 66 14.8
20260507124011 62 67 2.0 6.0 0.00 0.01 0.01 66 15.0
20260507122011 62 270 1.0 4.0 0.00 0.01 0.01 68 14.9
20260507121011 63 292 1.0 5.0 0.00 0.01 0.01 60 15.0
20260507115011 63 157 1.0 6.0 0.00 0.01 0.01 67 15.2
20260507114012 61 225 1.0 4.0 0.00 0.01 0.01 69 15.3
20260507113011 60 0 0.0 0.0 0.00 0.01 0.01 69 15.4
20260507110011 61 225 2.0 5.0 0.00 0.01 0.01 68 15.4
20260507105011 61 270 1.0 6.0 0.00 0.01 0.01 74 15.4
20260507103011 60 270 1.0 4.0 0.00 0.01 0.01 77 15.4
20260507102011 59 337 0.0 2.0 0.00 0.01 0.01 70 15.4
20260507101011 59 180 0.0 2.0 0.00 0.01 0.01 80 15.6
20260507100011 58 67 0.0 2.0 0.00 0.01 0.01 80 15.5
20260507095011 59 67 1.0 5.0 0.00 0.01 0.01 82 15.5
20260507094011 59 45 2.0 6.0 0.00 0.01 0.01 81 15.4
20260507093011 59 270 0.0 3.0 0.00 0.01 0.01 82 15.4
20260507091011 57 45 1.0 5.0 0.00 0.01 0.01 82 15.4
20260507090011 56 0 0.0 0.0 0.00 0.01 0.01 82 15.3
20260507085011 56 0 0.0 0.0 0.00 0.01 0.01 82 15.3
20260507084011 56 0 0.0 0.0 0.00 0.01 0.01 83 15.3
20260507082011 56 0 0.0 0.0 0.00 0.01 0.01 91 15.2
20260507081011 56 0 0.0 0.0 0.00 0.01 0.01 88 15.2
20260507075011 54 90 0.0 3.0 0.00 0.01 0.01 90 15.2
20260507074011 53 0 0.0 0.0 0.00 0.01 0.01 94 15.1
20260507073011 53 0 0.0 0.0 0.00 0.01 0.01 94 15.1
20260507072011 53 0 0.0 0.0 0.00 0.01 0.01 96 15.1
20260507071011 53 0 0.0 0.0 0.00 0.01 0.01 98 15.1
20260507070013 52 0 0.0 0.0 0.00 0.01 0.01 99 15.1
20260507065011 52 0 0.0 0.0 0.00 0.01 0.01 100 15.0
20260507064011 51 0 0.0 0.0 0.00 0.01 0.01 100 15.0
20260507063011 51 0 0.0 0.0 0.00 0.01 0.01 100 14.8
20260507062011 50 0 0.0 0.0 0.00 0.01 0.01 100 14.9
20260507061011 50 0 0.0 0.0 0.00 0.01 0.01 100 14.8
20260507060011 50 0 0.0 0.0 0.00 0.01 0.01 100 14.7
20260507055011 50 135 1.0 2.0 0.00 0.01 0.01 100 14.6
20260507054011 50 0 0.0 0.0 0.00 0.01 0.01 100 14.6
20260507053011 49 0 0.0 0.0 0.00 0.01 0.01 100 14.5
20260507051011 49 0 0.0 0.0 0.00 0.01 0.01 100 14.4
20260507045011 49 0 0.0 0.0 0.00 0.01 0.01 100 14.1
20260507044011 49 0 0.0 0.0 0.01 0.01 0.01 100 14.1
20260507043011 49 0 0.0 0.0 0.01 0.01 0.01 100 14.0
20260507042011 49 0 0.0 0.0 0.01 0.01 0.01 100 14.0
20260507041011 49 0 0.0 0.0 0.01 0.01 0.01 100 14.0
20260507040011 49 0 0.0 0.0 0.01 0.01 0.01 100 14.0
20260507035011 49 0 0.0 0.0 0.01 0.01 0.01 100 13.9
20260507034010 49 0 0.0 0.0 0.00 0.00 0.00 100 13.9
20260507033011 49 0 0.0 0.0 0.00 0.00 0.00 100 13.7
20260507032011 49 0 0.0 0.0 0.00 0.00 0.00 100 13.8
20260507031013 50 0 0.0 0.0 0.00 0.00 0.00 100 13.8
20260507030011 49 0 0.0 0.0 0.00 0.00 0.00 100 13.8
20260507025011 50 0 0.0 0.0 0.00 0.00 0.00 100 13.8
20260507024010 50 0 0.0 0.0 0.00 0.00 0.00 100 13.6
20260507023010 50 0 0.0 0.0 0.00 0.00 0.00 100 13.6
20260507022010 50 0 0.0 0.0 0.00 0.00 0.00 100 13.6
20260507021010 50 0 0.0 0.0 0.00 0.00 0.00 100 13.5
20260507020011 50 0 0.0 0.0 0.00 0.00 0.00 100 13.5
20260507015010 50 0 0.0 0.0 0.00 0.00 0.00 100 13.4
20260507014010 50 0 0.0 0.0 0.00 0.00 0.00 100 13.3
20260507013010 50 0 0.0 0.0 0.00 0.00 0.00 100 13.2
20260507012010 50 0 0.0 0.0 0.00 0.00 0.00 100 13.2
20260507010011 50 0 0.0 0.0 0.00 0.00 0.00 100 13.2
20260507005010 50 0 0.0 0.0 0.00 0.00 0.00 100 13.2
20260507004010 50 0 0.0 0.0 0.00 0.00 0.00 100 13.3
20260507003010 50 0 0.0 0.0 0.00 0.00 0.00 100 13.3
20260507002010 49 0 0.0 0.0 0.00 0.00 0.00 99 13.2
20260507000011 50 0 0.0 0.0 0.00 0.00 0.00 99 13.2
20260506235010 50 0 0.0 0.0 0.00 0.00 0.00 100 13.2
20260506234010 50 0 0.0 0.0 0.00 0.00 0.00 99 13.1